カタログに戻る

STARLINK-4757

運用中通信VLEO
NORAD 53824·PAYLOAD·🇺🇸 United States

打ち上げ Sep 19, 2022 から Cape Canaveral Space Force Station

Loading…

次のパス (今後24時間)

TLE

最新Source: CelesTrak SupGP

元期: Sep 14, 2026, 21:18 UTC

1 53824C 22114G   26257.88798611 -.00027365  00000+0 -78316-3 0  2571
2 53824  53.1589 166.1239 0001236  91.1178  83.1874 15.35403733    18

AllMySatでSTARLINK-4757をリアルタイム追跡

Download on the App Store